Tracking 31027 objects as of 19-Jul-2025
HD Live streaming from Space Station
objects crossing your sky now

STARLINK-32453

Track STARLINK-32453 now!
10-day predictions
STARLINK-32453 is classified as:


NORAD ID: 61671
Int'l Code: 2024-193L
Perigee: 481.6 km
Apogee: 483.2 km
Inclination: 53.2 °
Period: 94.1 minutes
Semi major axis: 6853 km
RCS: Unknown
Launch date: October 26, 2024
Source: United States (US)
Launch site: AIR FORCE EASTERN TEST RANGE (AFETR)
Your satellite tracking list
KORSAT 7
Track 1 satellite(s)




NASA's NSSDC Master Catalog

Two Line Element Set (TLE):
1 61671U 24193L   25199.44252704 -.00000417  00000-0 -19501-5 0  9999
2 61671  53.1603  98.9704 0001173  93.2542 266.8593 15.30180388 40667
Source of the keplerian elements: AFSPC